Skip Page Navigation
NASA JPL Caltech
NASA Logo - Jet Propulsion Laboratory + View the NASA Portal
+ Near-Earth Object (NEO) Program
Search JPL
JPL Home Earth Solar System Stars & Galaxies Technology
JPL Solar System Dynamics
BODIES ORBITS EPHEMERIDES TOOLS PHYSICAL DATA DISCOVERY FAQ SITE MAP
JPL Small-Body Database Browser
Search: [ help ]  
(2005 WY55)
Classification: Apollo [NEO, PHA]          SPK-ID: 3305002
Ephemeris | Orbit Diagram | Orbital Elements | Physical Parameters | Close-Approach Data ]

[ hide orbit diagram ]
Orbit Diagram
Note: Make sure you have Java enabled on your browser to see the applet. This applet is provided as a 3D orbit visualization tool. The applet was implemented using 2-body methods, and hence should not be used for determining accurate long-term trajectories (over several years or decades) or planetary encounter circumstances. For accurate long-term ephemerides, please instead use our Horizons system.
Orbit Viewer

Additional Notes: the orbits shown in the applet are color coded. The planets are white lines, and the asteroid/comet is a blue line. The bright white line indicates the portion of the orbit that is above the ecliptic plane, and the darker portion is below the ecliptic plane. Likewise for the asteroid/comet orbit, the light blue indicates the portion above the ecliptic plane, and the dark blue the portion below the ecliptic plane.

Orbit Viewer applet originally written and kindly provided by Osamu Ajiki (AstroArts), and further modified by Ron Baalke (JPL).


Orbital Elements at Epoch 2456400.5 (2013-Apr-18.0) TDB
Reference: JPL 29 (heliocentric ecliptic J2000)
 Element Value Uncertainty (1-sigma)   Units 
e .720461649106609 2.2336e-07  
a 2.487777771456714 1.1566e-07 AU
q .6954292956222451 5.5462e-07 AU
i 7.272694271849537 3.3728e-05 deg
node 248.2720394800547 5.1785e-05 deg
peri 286.1028661681632 7.6437e-05 deg
M 297.6875694571758 4.667e-05 deg
tp 2456648.577851626907
(2013-Dec-22.07785163)
0.00020298 JED
period 1433.229707262172
3.92
9.9948e-05
2.736e-07
d
yr
n .2511809503918881 1.7516e-08 deg/d
Q 4.280126247291183 1.9899e-07 AU
  Orbit Determination Parameters
   # obs. used (total)      130  
   data-arc span      1451 days (3.97 yr)  
   first obs. used      2005-11-26  
   last obs. used      2009-11-16  
   planetary ephem.      DE405  
   SB-pert. ephem.      SB405-CPV-2  
   condition code      0  
   fit RMS      .65192  
   data source      ORB  
   producer      Otto Matic  
   solution date      2011-Sep-14 20:06:12  

Additional Information
 Earth MOID = .0034762 AU 
 T_jup = 3.043 
[ show covariance matrix ]

Ephemeris | Orbit Diagram | Orbital Elements | Physical Parameters | Close-Approach Data ]

Physical Parameter Table
Parameter Symbol Value Units Sigma Reference Notes
absolute magnitude H 20.68 mag .6368 29 autocmod 2.5a

[ show close-approach data ]
Ephemeris | Orbit Diagram | Orbital Elements | Physical Parameters | Close-Approach Data ]
ABOUT SSD CREDITS/AWARDS PRIVACY/COPYRIGHT GLOSSARY LINKS
FirstGov 2013-May-24 02:33 UT
(server date/time)  
NASA Home Page
Site Manager:   Donald K. Yeomans
Webmaster  Alan B. Chamberlin